Tracking 25195 objects as of 20-Jan-2022
HD Live streaming from Space Station
objects crossing your sky now

SL-14 DEB

Track SL-14 DEB now!
10-day predictions


NORAD ID: 45318
Int'l Code: 1991-056BG
Perigee: 1,190.2 km
Apogee: 1,205.5 km
Inclination: 82.6 °
Period: 109.2 minutes
Semi major axis: 7568 km
RCS: Unknown
Launch date: August 15, 1991
Source: Commonwealth of Independent States (former USSR) (CIS)
Launch site: PLESETSK MISSILE AND SPACE COMPLEX (PKMTR)

Note: This is SATELLITE DEBRIS
aabbcc
Your satellite tracking list
Your tracking list is empty




NASA's NSSDC Master Catalog

Two Line Element Set (TLE):
1 45318U 91056BG  22019.86754429  .00000265  00000-0  64196-3 0  9993
2 45318  82.5697 196.1147 0010078 170.8932 189.2376 13.18435683 91407
Source of the keplerian elements: AFSPC